242 Weather Reports


time (UTC)temp
C
wind
direction
speed
KPH
gust
KPH
rain 1hr
cm
rain 24hr
cm
rain mn
cm
humidity
%
barometer
mb
20260906184304 37 290 3.2 16.1 0.00 0.00 0.00 31 1001.5
20260906183805 37 323 6.4 16.1 0.00 0.00 0.00 32 1001.2
20260906183305 37 324 12.9 17.7 0.00 0.00 0.00 32 1001.5
20260906182805 37 325 9.7 19.3 0.00 0.00 0.00 32 1001.9
20260906182306 37 323 14.5 19.3 0.00 0.00 0.00 31 1001.5
20260906181805 37 283 4.8 12.9 0.00 0.00 0.00 32 1001.9
20260906181305 38 357 4.8 12.9 0.00 0.00 0.00 31 1001.9
20260906180805 39 217 3.2 6.4 0.00 0.00 0.00 30 1001.9
20260906180305 38 281 3.2 9.7 0.00 0.00 0.00 32 1002.2
20260906175804 37 315 6.4 14.5 0.00 0.00 0.00 33 1002.2
20260906175306 37 6 4.8 16.1 0.00 0.00 0.00 35 1002.2
20260906174805 37 331 6.4 16.1 0.00 0.00 0.00 34 1002.2
20260906174305 37 237 0.0 12.9 0.00 0.00 0.00 35 1002.6
20260906173805 36 291 3.2 19.3 0.00 0.00 0.00 36 1002.9
20260906173305 37 24 8.0 19.3 0.00 0.00 0.00 35 1002.6
20260906172804 36 325 6.4 11.3 0.00 0.00 0.00 37 1002.9
20260906172306 37 4 4.8 11.3 0.00 0.00 0.00 36 1002.9
20260906171804 37 310 6.4 11.3 0.00 0.00 0.00 36 1002.9
20260906171305 36 322 11.3 12.9 0.00 0.00 0.00 37 1003.3
20260906170804 36 249 4.8 12.9 0.00 0.00 0.00 37 1002.9
20260906170305 36 328 3.2 8.0 0.00 0.00 0.00 39 1003.3
20260906165805 36 278 3.2 12.9 0.00 0.00 0.00 39 1003.3
20260906165306 36 318 6.4 12.9 0.00 0.00 0.00 39 1003.3
20260906164805 36 257 6.4 16.1 0.00 0.00 0.00 38 1003.3
20260906164305 35 299 3.2 19.3 0.00 0.00 0.00 40 1003.3
20260906163805 35 340 11.3 19.3 0.00 0.00 0.00 39 1003.3
20260906163305 36 300 8.0 9.7 0.00 0.00 0.00 38 1003.6
20260906162804 36 280 4.8 9.7 0.00 0.00 0.00 39 1003.6
20260906162306 36 307 3.2 9.7 0.00 0.00 0.00 40 1003.6
20260906161804 36 254 3.2 8.0 0.00 0.00 0.00 38 1003.6
20260906161305 36 338 0.0 9.7 0.00 0.00 0.00 41 1003.6
20260906160804 35 312 4.8 9.7 0.00 0.00 0.00 41 1003.3
20260906160305 35 258 3.2 11.3 0.00 0.00 0.00 42 1003.6
20260906155804 35 244 3.2 12.9 0.00 0.00 0.00 44 1003.6
20260906155306 35 246 8.0 12.9 0.00 0.00 0.00 43 1003.6
20260906154804 35 265 4.8 8.0 0.00 0.00 0.00 42 1003.6
20260906154304 34 235 4.8 12.9 0.00 0.00 0.00 45 1003.6
20260906153804 33 296 4.8 12.9 0.00 0.00 0.00 46 1003.6
20260906153305 34 300 6.4 6.4 0.00 0.00 0.00 45 1003.6
20260906152804 33 289 1.6 11.3 0.00 0.00 0.00 46 1003.6
20260906152307 34 251 3.2 11.3 0.00 0.00 0.00 45 1003.6
20260906151804 33 217 6.4 6.4 0.00 0.00 0.00 47 1003.6
20260906151304 32 289 3.2 9.7 0.00 0.00 0.00 49 1003.3
20260906150804 32 249 4.8 12.9 0.00 0.00 0.00 51 1003.6
20260906150304 31 220 6.4 16.1 0.00 0.00 0.00 54 1003.6
20260906145805 31 243 9.7 16.1 0.00 0.00 0.00 53 1003.6
20260906145306 31 265 6.4 16.1 0.00 0.00 0.00 54 1003.6
20260906144804 30 275 4.8 16.1 0.00 0.00 0.00 56 1003.6
20260906144305 30 258 12.9 14.5 0.00 0.00 0.00 57 1003.6
20260906143805 30 239 12.9 14.5 0.00 0.00 0.00 57 1003.6
20260906143305 30 242 6.4 16.1 0.00 0.00 0.00 57 1003.3
20260906142804 30 245 6.4 16.1 0.00 0.00 0.00 58 1003.6
20260906142306 30 251 14.5 16.1 0.00 0.00 0.00 59 1003.6
20260906141804 30 252 4.8 12.9 0.00 0.00 0.00 59 1003.3
20260906141304 29 267 6.4 17.7 0.00 0.00 0.00 61 1004.0
20260906140804 28 254 11.3 17.7 0.00 0.00 0.00 60 1003.6
20260906140305 29 257 11.3 12.9 0.00 0.00 0.00 61 1003.6
20260906135804 28 201 6.4 12.9 0.00 0.00 0.00 62 1003.6
20260906135306 28 246 4.8 16.1 0.00 0.00 0.00 63 1003.6
20260906134804 28 306 1.6 16.1 0.00 0.00 0.00 64 1003.3
20260906134304 28 233 8.0 11.3 0.00 0.00 0.00 64 1003.6
20260906133804 28 127 0.0 11.3 0.00 0.00 0.00 65 1003.3
20260906133305 27 232 4.8 8.0 0.00 0.00 0.00 66 1003.3
20260906132804 27 199 1.6 8.0 0.00 0.00 0.00 68 1003.3
20260906132306 27 146 3.2 8.0 0.00 0.00 0.00 68 1003.3
20260906131804 27 212 1.6 8.0 0.00 0.00 0.00 70 1003.3
20260906131304 26 213 3.2 9.7 0.00 0.00 0.00 71 1003.3
20260906130804 26 199 3.2 9.7 0.00 0.00 0.00 72 1002.9
20260906130304 26 177 4.8 8.0 0.00 0.00 0.00 72 1002.9
20260906125804 26 163 6.4 11.3 0.00 0.00 0.00 72 1002.9
20260906125306 26 191 8.0 11.3 0.00 0.00 0.00 73 1002.9
20260906124804 25 174 8.0 11.3 0.00 0.00 0.00 73 1003.3
20260906124304 25 187 8.0 9.7 0.00 0.00 0.00 72 1002.9
20260906123804 25 204 6.4 11.3 0.00 0.00 0.00 73 1002.9
20260906123304 25 180 6.4 12.9 0.00 0.00 0.00 75 1002.6
20260906122804 25 175 8.0 12.9 0.00 0.00 0.00 75 1002.6
20260906122306 25 195 11.3 14.5 0.00 0.00 0.00 72 1002.9
20260906121804 25 205 11.3 14.5 0.00 0.00 0.00 73 1002.6
20260906121304 25 211 8.0 14.5 0.00 0.00 0.00 75 1002.6
20260906120804 25 195 11.3 14.5 0.00 0.00 0.00 74 1002.6
20260906120304 25 200 11.3 12.9 0.00 0.00 0.00 74 1002.6
20260906115804 25 187 8.0 12.9 0.00 0.00 0.00 73 1002.2
20260906115306 25 186 8.0 14.5 0.00 0.00 0.00 72 1002.2
20260906114804 25 215 9.7 14.5 0.00 0.00 0.00 72 1002.6
20260906114304 25 226 9.7 14.5 0.00 0.00 0.00 73 1002.2
20260906113804 25 205 11.3 17.7 0.00 0.00 0.00 74 1002.2
20260906113304 25 221 9.7 17.7 0.00 0.00 0.00 72 1002.2
20260906112804 25 213 11.3 14.5 0.00 0.00 0.00 73 1002.2
20260906112306 26 214 9.7 14.5 0.00 0.00 0.00 71 1002.2
20260906111804 26 201 6.4 11.3 0.00 0.00 0.00 68 1002.2
20260906111304 26 212 6.4 9.7 0.00 0.00 0.00 68 1002.2
20260906110804 26 235 6.4 9.7 0.00 0.00 0.00 66 1002.2
20260906110304 26 192 3.2 6.4 0.00 0.00 0.00 65 1002.6
20260906105804 26 174 3.2 8.0 0.00 0.00 0.00 65 1001.9
20260906105306 27 180 3.2 8.0 0.00 0.00 0.00 64 1002.2
20260906104804 27 192 4.8 8.0 0.00 0.00 0.00 63 1002.2
20260906104304 27 223 4.8 6.4 0.00 0.00 0.00 61 1002.2
20260906103804 27 221 4.8 6.4 0.00 0.00 0.00 61 1001.9
20260906103304 27 213 4.8 6.4 0.00 0.00 0.00 61 1002.6
20260906102804 27 254 4.8 6.4 0.00 0.00 0.00 61 1002.2
20260906102306 27 296 4.8 6.4 0.00 0.00 0.00 61 1002.2
20260906101805 27 301 3.2 4.8 0.00 0.00 0.00 62 1002.2
20260906101304 27 194 1.6 6.4 0.00 0.00 0.00 61 1001.9
20260906100804 27 260 1.6 6.4 0.00 0.00 0.00 61 1001.9
20260906100304 27 220 4.8 6.4 0.00 0.00 0.00 61 1001.9
20260906095804 27 215 1.6 6.4 0.00 0.00 0.00 61 1001.9
20260906095306 27 200 0.0 8.0 0.00 0.00 0.00 61 1002.2
20260906094805 27 341 0.0 8.0 0.00 0.00 0.00 61 1002.2
20260906094305 27 335 3.2 8.0 0.00 0.00 0.00 62 1001.9
20260906093804 28 214 4.8 4.8 0.00 0.00 0.00 61 1001.9
20260906093304 28 230 0.0 6.4 0.00 0.00 0.00 61 1001.5
20260906092804 28 352 0.0 11.3 0.00 0.00 0.00 61 1001.9
20260906092306 27 334 4.8 12.9 0.00 0.00 0.00 61 1001.5
20260906091804 28 341 6.4 14.5 0.00 0.00 0.00 61 1001.5
20260906091304 28 331 8.0 14.5 0.00 0.00 0.00 60 1001.5
20260906090804 28 324 6.4 9.7 0.00 0.00 0.00 58 1001.5
20260906090304 28 301 3.2 8.0 0.00 0.00 0.00 56 1001.2
20260906085804 28 306 6.4 8.0 0.00 0.00 0.00 55 1001.5
20260906085306 28 12 0.0 8.0 0.00 0.00 0.00 55 1001.5
20260906084804 29 209 1.6 12.9 0.00 0.00 0.00 54 1001.5
20260906084304 28 330 0.0 14.5 0.00 0.00 0.00 54 1001.5
20260906083804 29 196 9.7 17.7 0.00 0.00 0.00 54 1001.2
20260906083304 29 214 14.5 22.5 0.00 0.00 0.00 53 1001.2
20260906082804 29 206 12.9 22.5 0.00 0.00 0.00 54 1001.2
20260906082306 29 192 11.3 19.3 0.00 0.00 0.00 54 1001.2
20260906081804 29 197 11.3 20.9 0.00 0.00 0.00 53 1001.2
20260906081305 29 193 14.5 20.9 0.00 0.00 0.00 53 1001.2
20260906080804 30 212 12.9 17.7 0.00 0.00 0.00 52 1001.2
20260906080304 30 194 11.3 16.1 0.00 0.00 0.00 51 1001.2
20260906075804 30 207 14.5 16.1 0.00 0.00 0.00 51 1000.9
20260906075306 30 207 8.0 17.7 0.00 0.00 0.00 51 1001.2
20260906074804 30 178 12.9 22.5 0.00 0.00 0.00 49 1001.2
20260906074304 30 177 12.9 25.7 0.00 0.00 0.00 50 1001.2
20260906073804 30 185 16.1 25.7 0.00 0.00 0.00 51 1001.5
20260906073304 30 164 16.1 20.9 0.00 0.00 0.00 51 1001.2
20260906072804 31 179 12.9 20.9 0.00 0.00 0.00 48 1001.5
20260906072306 30 169 17.7 19.3 0.00 0.00 0.00 50 1001.2
20260906071804 30 154 14.5 19.3 0.00 0.00 0.00 53 1001.5
20260906071304 30 156 8.0 19.3 0.00 0.00 0.00 53 1001.2
20260906070804 31 159 14.5 19.3 0.00 0.00 0.00 50 1001.5
20260906070304 31 140 9.7 11.3 0.00 0.00 0.00 48 1001.5
20260906065804 31 148 8.0 12.9 0.00 0.00 0.00 49 1001.5
20260906065305 30 146 6.4 16.1 0.00 0.00 0.00 51 1001.2
20260906064804 30 137 11.3 16.1 0.00 0.00 0.00 51 1001.9
20260906064304 31 120 11.3 14.5 0.00 0.00 0.00 49 1001.5
20260906063804 31 121 4.8 11.3 0.00 0.00 0.00 47 1001.5
20260906063304 31 267 3.2 11.3 0.00 0.00 0.00 48 1001.5
20260906062804 31 56 6.4 17.7 0.00 0.00 0.00 48 1001.2
20260906062306 31 45 12.9 24.1 0.00 0.00 0.00 47 1001.5
20260906061804 31 350 12.9 30.6 0.00 0.00 0.00 49 1001.5
20260906061304 31 33 22.5 30.6 0.00 0.00 0.00 49 1001.9
20260906060804 30 16 16.1 20.9 0.00 0.00 0.00 51 1001.9
20260906060304 30 48 12.9 22.5 0.00 0.00 0.00 50 1001.9
20260906055804 30 49 14.5 22.5 0.00 0.00 0.00 51 1002.2
20260906055306 30 55 17.7 22.5 0.00 0.00 0.00 50 1001.9
20260906054804 29 48 14.5 22.5 0.00 0.00 0.00 54 1001.9
20260906054304 30 49 16.1 20.9 0.00 0.00 0.00 52 1001.9
20260906053804 30 33 4.8 4.8 0.00 0.00 0.00 50 1001.9
20260906053304 30 80 3.2 4.8 0.00 0.00 0.00 50 1001.9
20260906052804 30 69 3.2 4.8 0.00 0.00 0.00 51 1001.9
20260906052305 30 17 3.2 4.8 0.00 0.00 0.00 51 1001.9
20260906051804 30 114 1.6 4.8 0.00 0.00 0.00 52 1001.5
20260906051304 30 212 0.0 8.0 0.00 0.00 0.00 53 1001.9
20260906050804 30 79 1.6 14.5 0.00 0.00 0.00 52 1001.9
20260906050304 30 85 6.4 14.5 0.00 0.00 0.00 57 1001.9
20260906045804 31 320 0.0 4.8 0.00 0.00 0.00 49 1001.9
20260906045306 31 246 0.0 6.4 0.00 0.00 0.00 49 1001.9
20260906044804 31 209 3.2 6.4 0.00 0.00 0.00 50 1001.9
20260906044304 31 241 3.2 4.8 0.00 0.00 0.00 46 1001.9
20260906043804 30 246 3.2 9.7 0.00 0.00 0.00 48 1001.5
20260906043304 30 269 1.6 9.7 0.00 0.00 0.00 55 1001.5
20260906042804 30 131 6.4 9.7 0.00 0.00 0.00 54 1001.9
20260906042306 31 253 3.2 4.8 0.00 0.00 0.00 57 1001.5
20260906041804 31 331 0.0 4.8 0.00 0.00 0.00 48 1001.5
20260906041304 31 347 3.2 4.8 0.00 0.00 0.00 48 1001.5
20260906040804 31 330 3.2 4.8 0.00 0.00 0.00 49 1001.2
20260906040304 32 330 3.2 4.8 0.00 0.00 0.00 47 1001.2
20260906035804 32 12 1.6 4.8 0.00 0.00 0.00 43 1001.5
20260906035306 32 103 0.0 1.6 0.00 0.00 0.00 45 1001.9
20260906034804 32 135 0.0 3.2 0.00 0.00 0.00 46 1001.5
20260906034304 31 128 0.0 8.0 0.00 0.00 0.00 46 1001.9
20260906033804 31 168 0.0 8.0 0.00 0.00 0.00 48 1001.5
20260906033304 31 260 0.0 6.4 0.00 0.00 0.00 47 1001.5
20260906032804 32 353 4.8 6.4 0.00 0.00 0.00 46 1001.2
20260906032306 32 18 3.2 8.0 0.00 0.00 0.00 42 1001.2
20260906031804 33 37 4.8 8.0 0.00 0.00 0.00 40 1001.2
20260906031304 33 42 6.4 8.0 0.00 0.00 0.00 41 1001.2
20260906030804 33 32 4.8 6.4 0.00 0.00 0.00 42 1001.5
20260906030304 33 50 4.8 6.4 0.00 0.00 0.00 42 1001.2
20260906025804 33 55 3.2 4.8 0.00 0.00 0.00 42 1001.2
20260906025306 33 76 0.0 3.2 0.00 0.00 0.00 42 1001.2
20260906024804 33 268 0.0 3.2 0.00 0.00 0.00 42 1001.2
20260906024304 33 300 0.0 3.2 0.00 0.00 0.00 43 1001.2
20260906023804 33 261 3.2 3.2 0.00 0.00 0.00 42 1000.9
20260906023304 33 284 0.0 3.2 0.00 0.00 0.00 42 1001.2
20260906022804 33 280 1.6 3.2 0.00 0.00 0.00 42 1000.9
20260906022307 33 276 0.0 4.8 0.00 0.00 0.00 41 1000.9
20260906021804 33 285 3.2 4.8 0.00 0.00 0.00 41 1000.9
20260906021304 34 333 3.2 4.8 0.00 0.00 0.00 40 1000.5
20260906020804 34 354 3.2 4.8 0.00 0.00 0.00 40 1000.5
20260906020304 34 356 3.2 4.8 0.00 0.00 0.00 41 1000.5
20260906015804 35 348 3.2 4.8 0.00 0.00 0.00 39 1000.9
20260906015306 35 344 3.2 6.4 0.00 0.00 0.00 38 1000.2
20260906014804 35 336 3.2 6.4 0.00 0.00 0.00 37 1000.5
20260906014304 35 339 6.4 6.4 0.00 0.00 0.00 37 1000.2
20260906013804 35 335 4.8 6.4 0.00 0.00 0.00 36 1000.2
20260906013304 36 334 4.8 6.4 0.00 0.00 0.00 35 1000.2
20260906012804 36 337 4.8 8.0 0.00 0.00 0.00 35 1000.5
20260906012306 36 327 1.6 8.0 0.00 0.00 0.00 35 1000.2
20260906011804 35 330 8.0 8.0 0.00 0.00 0.00 36 1000.2
20260906011303 36 342 6.4 6.4 0.00 0.00 0.00 35 1000.2
20260906010804 36 337 6.4 6.4 0.00 0.00 0.00 35 1000.2
20260906010304 36 311 1.6 8.0 0.00 0.00 0.00 35 1000.2
20260906005804 36 351 1.6 8.0 0.00 0.00 0.00 35 999.8
20260906005306 36 342 4.8 6.4 0.00 0.00 0.00 35 999.8
20260906004804 36 349 4.8 4.8 0.00 0.00 0.00 34 999.8
20260906004304 36 8 4.8 4.8 0.00 0.00 0.00 34 999.8
20260906003803 36 4.8 6.4 0.00 0.00 0.00 34 1000.2
20260906003304 36 354 3.2 8.0 0.00 0.00 0.00 34 999.8
20260906002804 36 2 3.2 8.0 0.00 0.00 0.00 34 1000.2
20260906002306 36 342 4.8 4.8 0.00 0.00 0.00 34 1000.2
20260906001804 36 36 1.6 4.8 0.00 0.00 0.00 34 999.8
20260906001304 36 55 0.0 6.4 0.00 0.00 0.00 34 1000.2
20260906000804 36 62 3.2 6.4 0.00 0.00 0.00 33 1000.2
20260906000304 36 358 3.2 6.4 0.00 0.00 0.00 33 1000.2
20260905235804 36 3 1.6 6.4 0.00 0.00 0.00 33 1000.2
20260905235306 36 326 3.2 6.4 0.00 0.00 0.00 33 1000.2
20260905234804 36 357 3.2 6.4 0.00 0.00 0.00 33 1000.2
20260905234304 37 34 3.2 8.0 0.00 0.00 0.00 33 1000.2
20260905233804 37 4.8 8.0 0.00 0.00 0.00 34 1000.2
20260905233304 36 9 1.6 11.3 0.00 0.00 0.00 34 1000.2
20260905232804 36 347 3.2 12.9 0.00 0.00 0.00 33 1000.2
20260905232306 37 14 9.7 12.9 0.00 0.00 0.00 34 1000.2
20260905231803 36 34 3.2 9.7 0.00 0.00 0.00 34 1000.2
20260905231304 36 77 8.0 14.5 0.00 0.00 0.00 34 1000.2
20260905230804 36 15 8.0 14.5 0.00 0.00 0.00 34 1000.2
20260905230304 37 11 9.7 17.7 0.00 0.00 0.00 33 999.8
20260905225804 37 35 12.9 17.7 0.00 0.00 0.00 33 999.8
20260905225305 37 126 4.8 12.9 0.00 0.00 0.00 33 999.8
20260905224804 37 65 9.7 12.9 0.00 0.00 0.00 33 999.8
20260905224303 37 98 4.8 17.7 0.00 0.00 0.00 33 999.8
20260905223803 37 160 11.3 17.7 0.00 0.00 0.00 33 999.8
20260905223304 37 119 9.7 14.5 0.00 0.00 0.00 32 999.8
20260905222804 37 242 3.2 14.5 0.00 0.00 0.00 32 1000.2
20260905222306 37 30 4.8 9.7 0.00 0.00 0.00 33 999.8
20260905221803 37 24 4.8 11.3 0.00 0.00 0.00 32 999.8
20260905221304 38 157 1.6 11.3 0.00 0.00 0.00 31 1000.2
20260905220803 37 288 4.8 12.9 0.00 0.00 0.00 32 1000.2
20260905220303 38 191 4.8 12.9 0.00 0.00 0.00 32 1000.2
20260905215804 37 255 8.0 16.1 0.00 0.00 0.00 32 1000.2
20260905215306 37 242 6.4 16.1 0.00 0.00 0.00 32 1000.2
20260905214804 37 247 8.0 16.1 0.00 0.00 0.00 32 1000.2
20260905214304 37 180 8.0 11.3 0.00 0.00 0.00 33 999.8
20260905213804 38 104 8.0 11.3 0.00 0.00 0.00 32 1000.2
20260905213304 37 260 4.8 11.3 0.00 0.00 0.00 33 1000.2
20260905212804 37 153 4.8 11.3 0.00 0.00 0.00 32 1000.2
20260905212306 37 287 3.2 17.7 0.00 0.00 0.00 33 1000.5
20260905211803 37 144 11.3 17.7 0.00 0.00 0.00 32 1000.5
20260905211304 38 256 8.0 14.5 0.00 0.00 0.00 31 1000.5
20260905210804 37 297 3.2 12.9 0.00 0.00 0.00 32 1000.5
20260905210304 37 177 6.4 12.9 0.00 0.00 0.00 31 1000.9
20260905205804 37 317 3.2 11.3 0.00 0.00 0.00 33 1000.9
20260905205306 37 4.8 12.9 0.00 0.00 0.00 33 1001.2
20260905204804 37 40 1.6 12.9 0.00 0.00 0.00 33 1000.9
20260905204303 36 255 4.8 14.5 0.00 0.00 0.00 34 1000.9
20260905203804 36 38 6.4 17.7 0.00 0.00 0.00 34 1001.2
20260905203304 37 91 8.0 17.7 0.00 0.00 0.00 34 1001.2
20260905202804 37 127 4.8 17.7 0.00 0.00 0.00 34 1001.2
20260905202306 38 241 4.8 11.3 0.00 0.00 0.00 32 1001.2
20260905201804 38 227 8.0 11.3 0.00 0.00 0.00 32 1001.2
20260905201303 37 258 3.2 11.3 0.00 0.00 0.00 33 1001.9
20260905200803 37 269 4.8 6.4 0.00 0.00 0.00 34 1001.5
20260905200304 37 248 4.8 11.3 0.00 0.00 0.00 35 1001.9
20260905195803 38 162 3.2 11.3 0.00 0.00 0.00 33 1001.9
20260905195306 38 112 3.2 8.0 0.00 0.00 0.00 34 1001.9
20260905194803 37 309 0.0 14.5 0.00 0.00 0.00 35 1001.9
20260905194303 37 242 8.0 14.5 0.00 0.00 0.00 35 1001.9
20260905193802 36 237 4.8 12.9 0.00 0.00 0.00 36 1001.9
20260905193302 36 213 8.0 11.3 0.00 0.00 0.00 36 1002.2
20260905192803 36 117 9.7 14.5 0.00 0.00 0.00 36 1002.2
20260905192305 36 165 6.4 14.5 0.00 0.00 0.00 36 1002.2
20260905191803 36 67 4.8 17.7 0.00 0.00 0.00 37 1002.2
20260905191303 36 89 9.7 17.7 0.00 0.00 0.00 37 1002.2
20260905190803 36 342 4.8 11.3 0.00 0.00 0.00 36 1002.2
20260905190303 36 138 6.4 14.5 0.00 0.00 0.00 36 1002.2
20260905185803 36 160 9.7 20.9 0.00 0.00 0.00 36 1002.6
20260905185305 36 168 8.0 20.9 0.00 0.00 0.00 36 1002.6
20260905184803 36 188 9.7 17.7 0.00 0.00 0.00 36 1002.6